Regional Weather Roundup
Issued by NWS

Home | Current Version | Previous Version | Text Only | Print | Product List | Glossary On
Versions: 1 2 3 4 5 6 7 8 9 10 11 12 13 14 15 16 17 18 19 20 21 22 23 24 25 26 27 28 29 30 31 32 33 34 35 36 37 38 39 40 41 42 43 44 45 46 47 48 49 50
000
ASUS44 KOUN 210210
RWROK

WEATHER ROUNDUP FOR OKLAHOMA
NATIONAL WEATHER SERVICE NORMAN OK
800 PM CST SAT DEC 20 2014

NOTE: "FAIR" INDICATES FEW OR NO CLOUDS BELOW 12,000 FEET WITH NO
      SIGNIFICANT WEATHER AND/OR OBSTRUCTIONS TO VISIBILITY.

OKZ001>007-009>012-014-015-017-210300-
NORTHWEST OKLAHOMA AND THE PANHANDLE

CITY           SKY/WX    TMP DP  RH WIND       PRES   REMARKS
GAGE           PTCLDY    38  35  89 S10       30.06R WCI  31
ENID/WOODRING  CLOUDY    43  39  87 SE10      30.12S
$$

OKZ016-021>023-033>039-044-045-210300-
SOUTHWEST OKLAHOMA

CITY           SKY/WX    TMP DP  RH WIND       PRES   REMARKS
LAWTON/REGL    CLOUDY    43  39  86 SE6       30.14S
LAWTON/FT SILL CLOUDY    42  39  88 SE5       30.13S
FREDERICK      CLOUDY    44  41  89 SE12      30.09S
CLINTON        CLOUDY    42  39  89 S15       30.12R FOG
HOBART         CLEAR     39  38  96 S9        30.12R WCI  33
ALTUS AFB      CLEAR     37  37 100 SE7       30.11  WCI  32
$$

OKZ018>020-024>031-210300-
CENTRAL OKLAHOMA

CITY           SKY/WX    TMP DP  RH WIND       PRES   REMARKS
OKLAHOMA CITY  CLOUDY    42  37  82 S7        30.15R
OKC/WILEY POST CLOUDY    43  38  82 S7        30.16R
STILLWATER     CLOUDY    44  37  76 S7        30.16S
GUTHRIE        CLOUDY    43  37  79 S9        30.15S
$$

OKZ008-013-054>072-210300-
NORTHEAST OKLAHOMA

CITY           SKY/WX    TMP DP  RH WIND       PRES   REMARKS
TULSA          CLOUDY    43  38  82 S8        30.20S
TULSA/JONES    CLOUDY    43  37  79 SW3       30.20R
PONCA CITY     CLOUDY    44  37  76 S7        30.15S
BARTLESVILLE   MOCLDY    39  33  79 S6        30.20R WCI  35
MUSKOGEE       CLOUDY    43  40  89 SE3       30.22S
$$

OKZ032-040>043-046>053-073>077-210300-
SOUTH CENTRAL/SOUTHEAST OKLAHOMA

CITY           SKY/WX    TMP DP  RH WIND       PRES   REMARKS
ARDMORE/DWNTWN CLOUDY    43  37  81 CALM      30.18R
MCALESTER      CLOUDY    45  42  89 CALM      30.19S
$$



USA.gov is the U.S. government's official web portal to all federal, state and local government web resources and services.